Location: Janeiro
(34.9957°N, 76.7652°W)
Time: 07:57:25
(UTC+00:00)

OAO 3 Copernicus - Pass Details

Date: 14 December 2019
Orbit: 695 x 705 km, 35.0° (Epoch: 18 January)

Event Time Altitude Azimuth Distance (km) Brightness Sun altitude
Rises 23:09:29 0° 260° (W) 3,072 9.5 -14.6°
Reaches altitude 10° 23:11:53 10° 260° (W) 2,157 8.2 -15.0°
Maximum altitude 23:16:57 84° 172° (S) 707 4.3 -16.0°
Enters shadow 23:19:41 28° 86° (E) 1,308 5.1 -16.6°
